Probability
3 0 0 3 0 0 6 6 6 0 0 0 0 0 0 0 0 0 0 0 0 0 0 0 0 0 0 0 0 0 0 0 0 0 0 0 0 0
6 0 3 3 3 3 10 3 3 0 0 0 0 0 0 0 0 0 0 0 0 0 0 0 0 0 0 0 0 0 0 0 0 0 0 0 0 0
3 0 0 0 0 3 3 3 3 0 0 0 0 0 0 0 0 0 0 0 0 0 0 0 0 0 0 0 0 0 0 0 0 0 0 0 0 0
3 0 0 0 0 3 0 0 3 0 0 0 0 0 0 0 0 0 0 0 0 0 0 0 0 0 0 0 0 0 0 0 0 0 0 0 0 0
0 0 0 0 0 0 0 0 0 0 0 0 0 0 0 0 0 0 0 0 0 0 0 0 0 0 0 0 0 0 0 0 0 0 0 0 0 0
0 0 0 0 0 0 0 0 0 0 0 0 0 0 0 0 0 0 0 0 0 0 0 0 0 0 0 0 0 0 0 0 0 0 0 0 0 0
0 0 0 0 0 0 0 0 0 0 0 0 0 0 0 0 0 0 0 0 0 0 0 0 0 0 0 0 0 0 0 0 0 0 0 0 0 0
0 0 0 0 0 0 0 0 0 0 0 0 0 0 0 0 0 0 0 0 0 0 0 0 0 0 0 0 0 0 0 0 0 0 0 0 0 0
0 0 0 0 0 0 0 0 0 0 0 0 0 0 0 0 0 0 0 0 0 0 0 0 0 0 0 0 0 0 0 0 0 0 0 0 0 0
0 0 0 0 0 0 0 0 0 0 0 0 0 0 0 0 0 0 0 0 0 0 0 0 0 0 0 0 0 0 0 0 0 0 0 0 0 0
0 0 0 0 0 0 0 0 0 0 0 0 0 0 0 0 0 0 0 0 0 0 0 0 0 0 0 0 0 0 0 0 0 0 0 0 0 0
0 0 0 0 0 0 0 0 0 0 0 0 0 0 0 0 0 0 0 0 0 0 0 0 0 0 0 0 0 0 0 0 0 0 0 0 0 0
0 0 0 0 0 0 0 0 0 0 0 0 0 0 0 0 0 0 0 0 0 0 0 0 0 0 0 0 0 0 0 0 0 0 0 0 0 0
0 0 0 0 0 0 0 0 0 0 0 0 3 0 0 0 0 0 0 0 0 0 0 0 0 0 0 0 0 0 0 0 0 0 0 0 0 0
0 0 0 0 0 0 0 0 0 3 6 3 6 0 3 0 0 0 0 0 0 0 0 0 0 0 0 0 0 0 0 0 0 0 0 0 0 0
0 0 0 0 0 0 0 0 0 3 3 6 3 0 0 0 0 0 0 0 0 0 0 0 0 0 0 0 0 0 0 0 0 0 0 0 0 0
0 0 0 0 0 0 0 0 0 0 0 3 3 3 3 3 0 0 0 0 0 0 0 0 0 0 0 0 0 0 0 0 0 0 0 0 0 0
0 0 0 0 0 0 0 0 0 0 0 3 6 6 3 0 0 0 0 0 0 0 0 0 0 0 0 0 0 0 0 0 0 0 0 0 0 0
0 0 0 0 0 0 0 0 0 0 0 3 6 6 3 3 0 0 0 0 0 0 0 0 0 0 0 0 0 0 0 0 0 0 0 0 0 0
3 0 0 0 0 0 0 0 0 0 0 3 0 0 0 0 0 0 0 0 0 0 0 0 0 0 0 0 0 0 0 0 0 0 0 0 0 0
0 0 0 0 0 0 0 0 0 0 0 0 0 0 0 0 0 0 0 0 0 0 0 0 0 0 0 0 0 0 0 0 0 0 0 0 0 0
0 0 0 0 0 0 0 0 0 0 0 0 0 0 0 0 0 0 0 0 0 0 0 0 0 0 0 0 0 0 0 0 0 0 0 0 0 0
0 0 0 0 0 0 0 0 0 0 0 0 0 0 0 0 0 0 0 0 0 0 0 0 0 0 0 0 0 0 0 0 0 0 0 0 0 0
Height
5828 5830 5831 5833 5835 5836 5838 5839 5841 5843 5844 5845 5847 5848 5849 5850 5851 5852 5853 5854 5854 5854 5854 5853 5853 5852 5852 5851 5850 5849 5848 5847 5845 5844 5843 5841 5840 5839
5819 5821 5823 5824 5826 5828 5829 5830 5832 5834 5835 5837 5838 5840 5841 5842 5843 5844 5845 5845 5846 5846 5846 5846 5846 5845 5845 5844 5844 5842 5841 5840 5838 5837 5836 5834 5833 5832
5810 5811 5813 5815 5817 5818 5820 5822 5823 5825 5827 5829 5830 5831 5832 5834 5835 5836 5837 5838 5838 5839 5839 5839 5839 5839 5838 5838 5837 5836 5834 5833 5832 5830 5829 5827 5826 5824
5800 5802 5804 5806 5807 5809 5811 5813 5815 5817 5819 5820 5821 5823 5824 5826 5827 5828 5829 5830 5831 5832 5832 5833 5833 5832 5832 5832 5830 5829 5828 5827 5825 5823 5822 5821 5819 5817
5791 5793 5795 5797 5799 5801 5803 5805 5807 5809 5811 5813 5814 5816 5817 5818 5820 5822 5823 5824 5825 5826 5826 5827 5827 5826 5826 5826 5824 5823 5822 5820 5818 5817 5815 5813 5811 5809
5783 5785 5787 5789 5791 5793 5795 5797 5799 5801 5803 5806 5807 5809 5810 5812 5814 5816 5818 5819 5820 5821 5821 5821 5821 5821 5821 5820 5819 5817 5816 5814 5812 5810 5808 5805 5803 5801
5776 5778 5780 5782 5784 5786 5788 5790 5793 5795 5797 5799 5801 5803 5805 5807 5810 5811 5813 5814 5815 5816 5816 5816 5816 5816 5815 5814 5813 5812 5810 5808 5806 5803 5801 5798 5796 5794
5769 5771 5773 5775 5777 5780 5782 5785 5787 5789 5792 5794 5797 5799 5801 5804 5806 5807 5809 5810 5811 5812 5812 5812 5812 5811 5810 5809 5808 5806 5804 5802 5800 5797 5795 5792 5790 5787
5763 5765 5767 5769 5772 5775 5777 5780 5782 5785 5788 5791 5794 5796 5798 5800 5802 5804 5805 5806 5807 5807 5807 5807 5807 5806 5806 5804 5803 5801 5799 5797 5794 5791 5789 5786 5783 5780
5757 5760 5762 5764 5767 5770 5773 5776 5778 5782 5785 5788 5791 5793 5795 5797 5799 5800 5802 5802 5803 5804 5804 5804 5803 5802 5801 5800 5798 5796 5794 5792 5789 5787 5784 5781 5777 5774
5752 5755 5758 5760 5763 5767 5770 5773 5775 5779 5782 5785 5787 5790 5792 5794 5796 5798 5799 5799 5800 5800 5800 5800 5799 5799 5798 5796 5794 5793 5790 5788 5785 5783 5780 5776 5773 5769
5748 5751 5754 5757 5760 5763 5767 5770 5773 5776 5779 5782 5785 5787 5790 5791 5793 5795 5796 5797 5797 5797 5797 5797 5797 5796 5795 5793 5792 5790 5787 5785 5782 5779 5776 5773 5769 5766
5744 5747 5750 5754 5757 5761 5764 5768 5771 5774 5777 5780 5783 5785 5787 5789 5791 5792 5793 5794 5795 5795 5795 5795 5795 5794 5793 5791 5789 5787 5785 5782 5779 5776 5773 5770 5767 5763
5742 5745 5748 5752 5756 5759 5763 5766 5770 5773 5776 5778 5781 5783 5785 5787 5788 5790 5791 5792 5792 5793 5793 5793 5793 5792 5791 5790 5788 5786 5783 5780 5777 5775 5772 5768 5765 5761
5742 5745 5748 5751 5755 5758 5762 5765 5768 5771 5774 5777 5779 5781 5783 5785 5787 5788 5789 5790 5791 5791 5792 5792 5792 5791 5790 5789 5787 5785 5782 5780 5776 5773 5770 5767 5764 5760
5744 5746 5749 5752 5755 5758 5761 5765 5767 5770 5773 5775 5778 5780 5782 5784 5785 5787 5788 5790 5790 5791 5791 5791 5791 5790 5789 5788 5786 5784 5781 5779 5776 5773 5770 5767 5763 5759
5748 5750 5752 5754 5757 5760 5762 5765 5768 5770 5773 5775 5778 5780 5781 5783 5785 5787 5788 5789 5790 5790 5791 5791 5790 5789 5788 5787 5785 5783 5780 5778 5775 5773 5770 5766 5763 5759
5754 5755 5756 5758 5760 5762 5764 5767 5769 5771 5774 5776 5778 5780 5782 5784 5785 5787 5788 5789 5790 5790 5790 5790 5789 5788 5787 5786 5784 5782 5780 5777 5775 5772 5769 5766 5763 5759
5759 5760 5761 5762 5764 5766 5767 5769 5771 5773 5775 5777 5779 5781 5783 5785 5786 5788 5789 5789 5790 5790 5790 5789 5789 5788 5787 5785 5783 5781 5779 5777 5774 5771 5768 5765 5761 5758
5765 5765 5766 5767 5768 5770 5771 5773 5774 5776 5778 5780 5782 5783 5785 5787 5788 5789 5789 5790 5790 5790 5789 5789 5788 5787 5786 5785 5783 5780 5778 5775 5773 5770 5767 5764 5760 5756
5771 5771 5771 5772 5773 5774 5775 5777 5778 5780 5781 5783 5784 5786 5787 5788 5789 5789 5790 5790 5790 5790 5789 5789 5788 5786 5785 5783 5782 5779 5777 5774 5771 5769 5766 5762 5759 5755
5777 5777 5777 5777 5778 5778 5779 5780 5782 5783 5784 5785 5786 5788 5788 5789 5790 5790 5790 5790 5790 5790 5789 5788 5787 5785 5784 5782 5780 5778 5776 5773 5770 5767 5764 5760 5757 5753
5783 5782 5782 5782 5783 5783 5784 5784 5785 5786 5787 5788 5789 5789 5790 5791 5791 5791 5791 5791 5790 5789 5788 5787 5786 5784 5782 5781 5778 5776 5774 5771 5768 5765 5762 5758 5755 5751
Wind_Speed
32 32 32 32 32 32 33 33 34 35 35 35 34 33 33 33 33 33 32 31 31 30 30 30 29 28 28 27 27 28 28 28 29 29 29 29 30 31
33 33 32 32 34 33 33 34 35 35 36 36 35 34 35 35 33 32 31 30 30 30 30 29 28 27 26 26 27 27 28 28 29 29 29 29 30 30
34 34 33 33 34 34 35 34 34 34 35 35 35 33 34 34 33 32 31 29 28 28 27 27 26 25 25 26 26 26 27 28 28 29 29 29 30 31
34 34 34 34 34 33 33 32 32 32 32 31 31 31 31 30 30 29 28 27 26 25 25 24 24 24 24 25 25 26 26 27 28 29 29 29 30 31
33 32 32 32 32 31 31 31 31 30 30 30 29 29 28 27 26 25 24 23 24 23 23 23 22 23 24 24 24 25 25 26 27 27 28 29 29 30
30 30 29 30 30 29 28 28 29 29 29 27 26 25 24 22 21 20 19 19 20 21 21 21 21 22 23 23 23 24 24 25 25 26 27 28 29 30
26 26 27 27 26 25 25 24 25 25 24 23 22 20 19 17 17 17 17 17 18 19 19 20 20 21 21 21 21 23 23 24 24 25 26 27 28 29
24 24 24 23 24 24 24 22 21 20 20 19 18 17 17 16 16 16 16 16 17 18 18 19 19 19 20 20 21 22 22 23 23 24 25 26 27 28
21 21 22 22 22 22 22 21 20 19 18 16 16 16 15 15 15 15 15 15 16 16 17 17 17 18 18 19 19 20 20 21 22 23 23 24 24 25
19 19 19 20 20 19 19 19 17 17 16 16 15 15 14 14 14 14 14 14 14 14 15 15 15 16 16 17 17 18 18 19 19 20 20 20 21 21
17 17 18 18 18 17 17 17 17 16 15 15 15 14 14 13 13 12 12 12 12 12 12 12 12 13 13 13 14 15 15 15 16 16 17 18 18 19
16 17 17 17 17 17 16 16 16 16 15 15 14 14 13 12 11 11 11 10 10 9 9 10 9 9 10 11 11 11 12 12 13 14 15 16 17 17
14 16 17 17 16 17 16 16 16 15 14 14 14 13 12 11 10 10 9 8 8 7 7 6 6 7 7 8 9 10 10 11 12 13 13 14 15 16
12 14 15 16 16 16 16 15 15 15 14 13 12 11 10 10 9 8 8 7 6 5 4 3 4 4 5 6 7 8 9 10 11 11 12 13 14 14
10 13 15 15 15 15 15 15 14 14 13 13 12 11 10 9 8 8 7 6 4 3 2 2 2 3 4 5 6 7 8 9 10 11 12 13 14 14
11 12 12 13 14 14 14 14 13 13 12 11 10 10 9 9 8 8 7 5 4 3 2 1 1 2 4 5 6 7 8 9 10 11 12 13 14 15
13 12 12 12 13 13 13 12 12 12 11 11 10 10 10 9 9 8 7 5 4 3 2 0 1 2 3 5 6 7 8 9 10 11 12 14 15 16
14 13 13 13 13 13 12 12 12 12 12 11 11 10 10 10 9 8 6 5 4 3 1 0 1 2 3 4 6 7 8 9 10 11 13 14 15 16
15 15 14 14 14 14 13 13 13 13 13 12 11 11 11 10 9 7 6 5 4 3 2 2 2 3 4 5 6 7 9 10 11 12 14 14 15 16
16 15 15 15 15 15 15 14 14 14 13 13 12 12 11 9 8 7 6 5 4 3 2 2 2 3 4 6 7 8 10 11 12 13 14 15 16 17
16 16 16 16 15 15 14 14 14 13 13 12 12 11 10 8 7 6 6 5 4 3 2 2 3 4 5 6 8 9 10 11 12 14 15 16 17 18
16 15 15 15 15 14 14 14 13 13 13 12 11 10 9 8 7 6 6 4 3 2 1 2 4 5 6 7 8 10 11 12 13 14 15 17 18 19
15 15 15 15 15 15 14 14 13 13 12 11 11 10 9 8 7 5 4 3 1 1 3 4 5 6 7 8 9 10 11 13 14 15 16 18 19 21
Wind_Direction
255 256 256 255 253 251 250 250 252 253 253 255 257 259 261 261 261 261 262 264 265 266 267 267 269 270 272 275 277 277 276 276 277 277 277 276 275 274
253 254 255 254 251 251 252 251 251 252 253 254 256 259 259 259 260 260 260 262 264 265 265 265 266 269 272 275 277 278 278 278 279 278 277 276 276 276
254 254 255 254 252 252 250 251 250 251 252 253 254 256 257 258 257 259 260 261 262 263 262 264 266 269 273 276 279 279 279 279 280 279 278 278 278 278
253 254 254 254 254 251 249 250 250 252 252 253 253 253 254 255 256 258 258 260 260 261 262 264 266 270 274 277 279 281 281 281 281 280 280 280 280 279
251 252 252 250 249 246 249 249 250 250 250 251 250 251 253 254 254 256 256 258 259 259 261 264 268 273 276 279 281 283 285 284 284 283 283 281 282 282
247 246 247 246 245 244 246 245 246 246 247 248 248 249 249 250 250 250 253 255 257 260 263 267 272 275 278 281 283 285 286 286 286 286 285 283 284 285
243 241 240 241 239 238 238 240 241 242 240 239 239 241 241 241 241 244 248 252 257 262 266 270 273 276 280 281 283 285 286 288 289 290 289 287 286 286
239 236 235 235 233 231 232 232 230 228 227 229 230 231 232 233 237 243 248 254 259 262 267 271 275 278 280 282 284 286 288 290 292 292 293 291 289 287
235 236 235 233 229 226 224 223 222 219 217 218 221 223 226 230 235 242 249 255 260 264 268 274 277 280 282 286 288 290 293 295 295 295 295 295 294 292
231 229 228 226 222 218 216 211 207 204 206 211 216 221 224 229 237 243 250 256 261 267 272 277 280 282 285 290 292 295 298 300 300 301 302 304 306 305
223 218 217 217 212 207 205 206 207 208 209 210 214 220 225 231 237 244 250 257 263 269 273 277 281 285 289 294 298 301 304 306 307 309 313 316 318 319
214 211 210 209 204 203 204 206 207 207 208 212 217 221 225 230 235 241 249 257 261 265 270 275 281 289 298 302 306 308 311 312 316 319 322 324 328 331
208 208 208 204 200 198 199 201 204 205 209 214 219 222 225 228 233 239 244 250 254 258 265 275 285 298 310 314 318 320 322 325 328 331 335 338 340 341
190 191 192 192 193 194 199 202 204 207 211 214 217 218 221 224 227 232 231 231 237 241 248 272 297 313 325 330 332 335 338 341 344 346 346 347 350 353
165 169 174 181 187 188 194 197 200 203 206 209 211 213 215 217 218 214 208 207 206 208 226 264 309 328 338 343 346 350 353 355 357 358 358 359 1 2
138 147 157 167 172 175 179 184 188 190 193 196 198 200 200 198 193 190 187 182 185 193 203 230 305 339 347 352 355 357 360 1 2 3 4 4 3 3
116 125 133 143 153 159 165 171 174 176 177 178 181 182 181 179 177 174 171 170 167 163 160 159 345 344 347 354 359 3 4 4 4 4 5 5 6 4
106 117 125 132 138 144 149 153 157 160 162 164 165 165 163 161 159 159 160 158 154 149 143 30 4 10 9 9 7 4 4 4 4 3 2 1 1 1
100 107 115 122 128 132 135 138 142 146 149 152 152 152 150 150 148 149 150 151 148 138 116 86 56 30 16 6 2 1 360 0 359 357 356 355 354 354
97 102 108 115 120 124 128 130 132 135 138 141 142 143 144 145 144 143 143 142 136 125 111 80 39 17 7 2 359 359 358 356 354 353 352 352 351 351
94 99 105 110 115 120 123 125 128 130 133 136 138 140 141 141 139 136 133 128 124 115 93 49 17 2 354 352 352 353 352 351 350 350 349 349 348 348
94 98 103 107 110 114 118 121 123 125 128 130 132 134 134 133 132 130 127 124 115 95 45 1 346 341 342 344 344 345 345 346 345 345 346 347 348 348
93 98 103 106 108 110 114 117 120 122 124 126 127 128 129 128 128 126 122 112 78 8 343 336 334 334 335 337 337 338 341 343 344 344 345 345 346 346